| time (UTC) | temp F | wind direction | speed knots | gust knots | rain 1hr in | rain 24hr in | rain mn in | humidity % | barometer mb |
| 20260508205012 | 68 | 344 | 0.9 | 7.8 | 0.00 | 0.00 | 0.00 | 38 | 1014.7 |
| 20260508204520 | 67 | 76 | 2.6 | 7.8 | 0.00 | 0.00 | 0.00 | 40 | 1014.7 |
| 20260508204010 | 68 | 29 | 4.3 | 7.8 | 0.00 | 0.00 | 0.00 | 38 | 1014.8 |
| 20260508203509 | 68 | 103 | 1.7 | 7.8 | 0.00 | 0.00 | 0.00 | 37 | 1014.8 |
| 20260508203032 | 67 | 79 | 1.7 | 7.0 | 0.00 | 0.00 | 0.00 | 39 | 1014.9 |
| 20260508202509 | 67 | 65 | 2.6 | 8.7 | 0.00 | 0.00 | 0.00 | 39 | 1014.9 |
| 20260508202007 | 67 | 336 | 3.5 | 8.7 | 0.00 | 0.00 | 0.00 | 39 | 1015.0 |
| 20260508201516 | 67 | 57 | 0.9 | 7.0 | 0.00 | 0.00 | 0.00 | 38 | 1015.0 |
| 20260508201008 | 67 | 360 | 3.5 | 8.7 | 0.00 | 0.00 | 0.00 | 38 | 1015.0 |
| 20260508200507 | 67 | 76 | 2.6 | 8.7 | 0.00 | 0.00 | 0.00 | 39 | 1015.1 |
| 20260508200024 | 67 | 336 | 1.7 | 5.2 | 0.00 | 0.00 | 0.00 | 38 | 1015.2 |
| 20260508195507 | 67 | 329 | 1.7 | 5.2 | 0.00 | 0.00 | 0.00 | 39 | 1015.2 |
| 20260508195003 | 67 | 360 | 2.6 | 7.0 | 0.00 | 0.00 | 0.00 | 38 | 1015.3 |
| 20260508194523 | 68 | 23 | 3.5 | 7.0 | 0.00 | 0.00 | 0.00 | 39 | 1015.3 |
| 20260508194006 | 68 | 9 | 0.9 | 4.3 | 0.00 | 0.00 | 0.00 | 39 | 1015.4 |
| 20260508193507 | 67 | 75 | 2.6 | 4.3 | 0.00 | 0.00 | 0.00 | 43 | 1015.4 |
| 20260508193016 | 66 | 345 | 2.6 | 5.2 | 0.00 | 0.00 | 0.00 | 41 | 1015.4 |
| 20260508192513 | 65 | 67 | 0.9 | 7.0 | 0.00 | 0.00 | 0.00 | 43 | 1015.4 |
| 20260508192012 | 65 | 52 | 3.5 | 7.0 | 0.00 | 0.00 | 0.00 | 41 | 1015.6 |
| 20260508191505 | 66 | 69 | 0.9 | 7.8 | 0.00 | 0.00 | 0.00 | 43 | 1015.6 |
| 20260508191004 | 65 | 24 | 2.6 | 7.8 | 0.00 | 0.00 | 0.00 | 41 | 1015.7 |
| 20260508190506 | 66 | 55 | 1.7 | 5.2 | 0.00 | 0.00 | 0.00 | 43 | 1015.8 |
| 20260508190014 | 65 | 135 | 0.9 | 7.0 | 0.00 | 0.00 | 0.00 | 44 | 1015.8 |
| 20260508185504 | 64 | 144 | 1.7 | 7.8 | 0.00 | 0.00 | 0.00 | 47 | 1016.0 |
| 20260508185012 | 64 | 71 | 2.6 | 8.7 | 0.00 | 0.00 | 0.00 | 46 | 1016.0 |
| 20260508184521 | 64 | 76 | 1.7 | 8.7 | 0.00 | 0.00 | 0.00 | 45 | 1015.9 |
| 20260508184008 | 64 | 58 | 2.6 | 6.1 | 0.00 | 0.00 | 0.00 | 44 | 1015.9 |
| 20260508183503 | 63 | 328 | 2.6 | 10.4 | 0.00 | 0.00 | 0.00 | 45 | 1016.1 |
| 20260508183007 | 63 | 43 | 5.2 | 10.4 | 0.00 | 0.00 | 0.00 | 46 | 1016.1 |
| 20260508182507 | 63 | 5 | 5.2 | 8.7 | 0.00 | 0.00 | 0.00 | 45 | 1016.1 |
| 20260508182006 | 62 | 129 | 2.6 | 7.8 | 0.00 | 0.00 | 0.00 | 46 | 1016.2 |
| 20260508181517 | 62 | 73 | 2.6 | 7.8 | 0.00 | 0.00 | 0.00 | 46 | 1016.1 |
| 20260508181010 | 63 | 30 | 1.7 | 7.8 | 0.00 | 0.00 | 0.00 | 44 | 1016.2 |
| 20260508180514 | 63 | 42 | 2.6 | 6.1 | 0.00 | 0.00 | 0.00 | 45 | 1016.3 |
| 20260508180027 | 62 | 5 | 0.0 | 6.1 | 0.00 | 0.00 | 0.00 | 45 | 1016.3 |
| 20260508175504 | 62 | 95 | 1.7 | 8.7 | 0.00 | 0.00 | 0.00 | 44 | 1016.3 |
| 20260508175010 | 63 | 86 | 2.6 | 8.7 | 0.00 | 0.00 | 0.00 | 46 | 1016.4 |
| 20260508174513 | 63 | 50 | 2.6 | 7.0 | 0.00 | 0.00 | 0.00 | 45 | 1016.4 |
| 20260508174007 | 63 | 352 | 2.6 | 9.6 | 0.00 | 0.00 | 0.00 | 44 | 1016.5 |
| 20260508173508 | 62 | 24 | 2.6 | 10.4 | 0.00 | 0.00 | 0.00 | 46 | 1016.6 |
| 20260508173022 | 62 | 352 | 4.3 | 10.4 | 0.00 | 0.00 | 0.00 | 46 | 1016.6 |
| 20260508172517 | 62 | 95 | 1.7 | 9.6 | 0.00 | 0.00 | 0.00 | 46 | 1016.5 |
| 20260508172015 | 63 | 36 | 2.6 | 7.0 | 0.00 | 0.00 | 0.00 | 45 | 1016.4 |
| 20260508171526 | 63 | 11 | 2.6 | 7.0 | 0.00 | 0.00 | 0.00 | 46 | 1016.5 |
| 20260508171010 | 62 | 69 | 2.6 | 7.0 | 0.00 | 0.00 | 0.00 | 46 | 1016.6 |
| 20260508170510 | 62 | 60 | 2.6 | 7.0 | 0.00 | 0.00 | 0.00 | 45 | 1016.6 |
| 20260508170013 | 62 | 113 | 1.7 | 7.8 | 0.00 | 0.00 | 0.00 | 47 | 1016.6 |
| 20260508165504 | 62 | 5 | 2.6 | 7.8 | 0.00 | 0.00 | 0.00 | 46 | 1016.7 |
| 20260508165006 | 62 | 22 | 1.7 | 7.8 | 0.00 | 0.00 | 0.00 | 46 | 1016.8 |
| 20260508164524 | 62 | 42 | 0.9 | 5.2 | 0.00 | 0.00 | 0.00 | 49 | 1016.8 |
| 20260508164010 | 61 | 111 | 1.7 | 5.2 | 0.00 | 0.00 | 0.00 | 48 | 1016.8 |
| 20260508163511 | 61 | 32 | 0.9 | 6.1 | 0.00 | 0.00 | 0.00 | 48 | 1016.8 |
| 20260508163028 | 62 | 156 | 1.7 | 6.1 | 0.00 | 0.00 | 0.00 | 47 | 1016.8 |
| 20260508162507 | 62 | 136 | 1.7 | 5.2 | 0.00 | 0.00 | 0.00 | 47 | 1016.8 |
| 20260508162013 | 62 | 79 | 0.9 | 5.2 | 0.00 | 0.00 | 0.00 | 49 | 1016.8 |
| 20260508161520 | 62 | 82 | 1.7 | 4.3 | 0.00 | 0.00 | 0.00 | 51 | 1016.8 |
| 20260508161010 | 61 | 94 | 0.9 | 5.2 | 0.00 | 0.00 | 0.00 | 52 | 1016.8 |
| 20260508160514 | 61 | 147 | 1.7 | 5.2 | 0.00 | 0.00 | 0.00 | 53 | 1016.8 |
| 20260508160027 | 60 | 59 | 0.9 | 7.8 | 0.00 | 0.00 | 0.00 | 53 | 1016.9 |
| 20260508155511 | 60 | 79 | 2.6 | 7.8 | 0.00 | 0.00 | 0.00 | 54 | 1016.9 |
| 20260508155014 | 59 | 93 | 2.6 | 7.8 | 0.00 | 0.00 | 0.00 | 55 | 1016.8 |
| 20260508154544 | 59 | 165 | 0.9 | 3.5 | 0.00 | 0.00 | 0.00 | 54 | 1016.8 |
| 20260508154009 | 59 | 107 | 0.9 | 5.2 | 0.00 | 0.00 | 0.00 | 54 | 1016.8 |
| 20260508153510 | 59 | 81 | 0.9 | 5.2 | 0.00 | 0.00 | 0.00 | 53 | 1016.7 |
| 20260508153024 | 59 | 113 | 0.9 | 6.1 | 0.00 | 0.00 | 0.00 | 54 | 1016.8 |
| 20260508152507 | 59 | 103 | 1.7 | 7.0 | 0.00 | 0.00 | 0.00 | 55 | 1016.7 |
| 20260508152012 | 58 | 92 | 1.7 | 7.0 | 0.00 | 0.00 | 0.00 | 59 | 1016.7 |
| 20260508151526 | 57 | 86 | 1.7 | 3.5 | 0.00 | 0.00 | 0.00 | 62 | 1016.6 |
| 20260508151015 | 56 | 146 | 0.0 | 5.2 | 0.00 | 0.00 | 0.00 | 63 | 1016.5 |
| 20260508150513 | 55 | 94 | 0.9 | 5.2 | 0.00 | 0.00 | 0.00 | 63 | 1016.6 |
| 20260508150017 | 55 | 161 | 0.9 | 5.2 | 0.00 | 0.00 | 0.00 | 64 | 1016.6 |
| 20260508145510 | 56 | 133 | 0.0 | 5.2 | 0.00 | 0.00 | 0.00 | 62 | 1016.6 |
| 20260508145009 | 56 | 128 | 1.7 | 4.3 | 0.00 | 0.00 | 0.00 | 62 | 1016.7 |
| 20260508144524 | 55 | 133 | 0.9 | 4.3 | 0.00 | 0.00 | 0.00 | 62 | 1016.8 |
| 20260508144013 | 55 | 149 | 0.9 | 4.3 | 0.00 | 0.00 | 0.00 | 62 | 1016.8 |
| 20260508143511 | 55 | 173 | 1.7 | 5.2 | 0.00 | 0.00 | 0.00 | 61 | 1016.8 |
| 20260508143029 | 55 | 169 | 0.9 | 5.2 | 0.00 | 0.00 | 0.00 | 63 | 1016.7 |
| 20260508142511 | 55 | 213 | 1.7 | 4.3 | 0.00 | 0.00 | 0.00 | 66 | 1016.8 |
| 20260508142012 | 54 | 124 | 0.9 | 2.6 | 0.00 | 0.00 | 0.00 | 67 | 1016.9 |
| 20260508141530 | 53 | 171 | 0.9 | 3.5 | 0.00 | 0.00 | 0.00 | 71 | 1017.1 |
| 20260508141011 | 52 | 197 | 0.9 | 3.5 | 0.00 | 0.00 | 0.00 | 72 | 1017.1 |
| 20260508140502 | 52 | 192 | 0.9 | 3.5 | 0.00 | 0.00 | 0.00 | 74 | 1017.2 |
| 20260508140008 | 51 | 191 | 0.9 | 2.6 | 0.00 | 0.00 | 0.00 | 77 | 1017.2 |
| 20260508135509 | 50 | 109 | 0.9 | 1.7 | 0.00 | 0.00 | 0.00 | 80 | 1017.2 |
| 20260508135012 | 49 | 178 | 0.0 | 1.7 | 0.00 | 0.00 | 0.00 | 82 | 1017.3 |
| 20260508134517 | 48 | 193 | 0.0 | 1.7 | 0.00 | 0.00 | 0.00 | 83 | 1017.3 |
| 20260508134006 | 47 | 194 | 0.0 | 1.7 | 0.00 | 0.00 | 0.00 | 86 | 1017.5 |
| 20260508133509 | 46 | 63 | 0.9 | 1.7 | 0.00 | 0.00 | 0.00 | 87 | 1017.5 |
| 20260508133043 | 45 | 119 | 0.9 | 1.7 | 0.00 | 0.00 | 0.00 | 89 | 1017.5 |
| 20260508132504 | 44 | 174 | 0.0 | 1.7 | 0.00 | 0.00 | 0.00 | 89 | 1017.4 |
| 20260508132004 | 44 | 117 | 0.0 | 1.7 | 0.00 | 0.00 | 0.00 | 88 | 1017.4 |
| 20260508131509 | 43 | 151 | 0.0 | 1.7 | 0.00 | 0.00 | 0.00 | 88 | 1017.4 |
| 20260508131007 | 43 | 178 | 0.0 | 1.7 | 0.00 | 0.00 | 0.00 | 89 | 1017.4 |
| 20260508130507 | 43 | 178 | 0.0 | 1.7 | 0.00 | 0.00 | 0.00 | 89 | 1017.5 |
| 20260508130025 | 43 | 186 | 0.0 | 1.7 | 0.00 | 0.00 | 0.00 | 89 | 1017.5 |
| 20260508125509 | 43 | 186 | 0.0 | 1.7 | 0.00 | 0.00 | 0.00 | 89 | 1017.6 |
| 20260508125009 | 43 | 192 | 0.0 | 1.7 | 0.00 | 0.00 | 0.00 | 90 | 1017.6 |
| 20260508124504 | 42 | 68 | 0.9 | 1.7 | 0.00 | 0.00 | 0.00 | 90 | 1017.6 |
| 20260508124006 | 42 | 181 | 0.0 | 1.7 | 0.00 | 0.00 | 0.00 | 90 | 1017.7 |
| 20260508123509 | 42 | 144 | 0.0 | 3.5 | 0.00 | 0.00 | 0.00 | 91 | 1017.7 |
| 20260508123025 | 42 | 141 | 0.0 | 3.5 | 0.00 | 0.00 | 0.00 | 91 | 1017.6 |
| 20260508122507 | 41 | 223 | 1.7 | 3.5 | 0.00 | 0.00 | 0.00 | 92 | 1017.5 |
| 20260508122011 | 41 | 189 | 0.9 | 1.7 | 0.00 | 0.00 | 0.00 | 93 | 1017.8 |
| 20260508121530 | 41 | 95 | 0.0 | 1.7 | 0.00 | 0.00 | 0.00 | 93 | 1018.0 |
| 20260508121010 | 41 | 58 | 0.0 | 1.7 | 0.00 | 0.00 | 0.00 | 93 | 1017.9 |
| 20260508120503 | 40 | 41 | 0.0 | 1.7 | 0.00 | 0.00 | 0.00 | 93 | 1017.7 |
| 20260508120012 | 40 | 41 | 0.9 | 1.7 | 0.00 | 0.00 | 0.00 | 93 | 1017.5 |
| 20260508115507 | 40 | 240 | 0.0 | 1.7 | 0.00 | 0.00 | 0.00 | 93 | 1017.1 |
| 20260508115007 | 40 | 240 | 0.0 | 1.7 | 0.00 | 0.00 | 0.00 | 93 | 1016.9 |
| 20260508114524 | 39 | 229 | 0.9 | 1.7 | 0.00 | 0.00 | 0.00 | 92 | 1016.6 |
| 20260508114007 | 39 | 221 | 0.0 | 1.7 | 0.00 | 0.00 | 0.00 | 92 | 1016.4 |
| 20260508113508 | 39 | 221 | 0.0 | 1.7 | 0.00 | 0.00 | 0.00 | 92 | 1016.5 |
| 20260508113028 | 39 | 227 | 0.0 | 0.9 | 0.00 | 0.00 | 0.00 | 92 | 1016.4 |
| 20260508112504 | 39 | 234 | 0.0 | 1.7 | 0.00 | 0.00 | 0.00 | 92 | 1016.4 |
| 20260508112003 | 39 | 234 | 0.0 | 1.7 | 0.00 | 0.00 | 0.00 | 92 | 1016.5 |
| 20260508111516 | 39 | 231 | 0.0 | 1.7 | 0.00 | 0.00 | 0.00 | 92 | 1016.5 |
| 20260508111008 | 39 | 231 | 0.0 | 1.7 | 0.00 | 0.00 | 0.00 | 92 | 1016.6 |
| 20260508110508 | 40 | 231 | 0.0 | 1.7 | 0.00 | 0.00 | 0.00 | 92 | 1016.5 |
| 20260508110004 | 40 | 222 | 0.9 | 1.7 | 0.00 | 0.00 | 0.00 | 91 | 1016.4 |
| 20260508105503 | 40 | 301 | 0.0 | 1.7 | 0.00 | 0.00 | 0.00 | 91 | 1016.4 |
| 20260508105004 | 40 | 336 | 0.0 | 1.7 | 0.00 | 0.00 | 0.00 | 91 | 1016.5 |
| 20260508104508 | 40 | 211 | 0.9 | 1.7 | 0.00 | 0.00 | 0.00 | 91 | 1016.4 |
| 20260508104003 | 40 | 195 | 0.0 | 1.7 | 0.00 | 0.00 | 0.00 | 91 | 1016.3 |
| 20260508103506 | 40 | 195 | 0.0 | 1.7 | 0.00 | 0.00 | 0.00 | 91 | 1016.2 |
| 20260508103018 | 40 | 188 | 0.0 | 1.7 | 0.00 | 0.00 | 0.00 | 91 | 1016.1 |
| 20260508102508 | 40 | 188 | 0.9 | 1.7 | 0.00 | 0.00 | 0.00 | 91 | 1016.1 |
| 20260508102010 | 40 | 56 | 0.0 | 1.7 | 0.00 | 0.00 | 0.00 | 91 | 1016.1 |
| 20260508101505 | 40 | 60 | 0.0 | 1.7 | 0.00 | 0.00 | 0.00 | 91 | 1015.8 |
| 20260508101004 | 40 | 81 | 0.0 | 2.6 | 0.00 | 0.00 | 0.00 | 91 | 1015.6 |
| 20260508100507 | 40 | 45 | 0.0 | 2.6 | 0.00 | 0.00 | 0.00 | 91 | 1015.5 |
| 20260508100012 | 40 | 44 | 0.9 | 1.7 | 0.00 | 0.00 | 0.00 | 91 | 1015.2 |
| 20260508095505 | 40 | 188 | 0.0 | 1.7 | 0.00 | 0.00 | 0.00 | 90 | 1015.1 |
| 20260508095007 | 40 | 189 | 0.0 | 1.7 | 0.00 | 0.00 | 0.00 | 90 | 1015.1 |
| 20260508094522 | 40 | 189 | 0.0 | 1.7 | 0.00 | 0.00 | 0.00 | 90 | 1015.2 |
| 20260508094008 | 41 | 189 | 0.0 | 1.7 | 0.00 | 0.00 | 0.00 | 90 | 1015.3 |
| 20260508093504 | 41 | 188 | 0.0 | 1.7 | 0.00 | 0.00 | 0.00 | 90 | 1015.3 |
| 20260508093011 | 41 | 189 | 0.9 | 1.7 | 0.00 | 0.00 | 0.00 | 89 | 1015.3 |
| 20260508092505 | 41 | 183 | 0.0 | 1.7 | 0.00 | 0.00 | 0.00 | 89 | 1015.2 |
| 20260508092004 | 41 | 183 | 0.0 | 1.7 | 0.00 | 0.00 | 0.00 | 89 | 1015.2 |
| 20260508091515 | 41 | 183 | 0.0 | 1.7 | 0.00 | 0.00 | 0.00 | 89 | 1015.2 |
| 20260508091012 | 42 | 183 | 0.0 | 1.7 | 0.00 | 0.00 | 0.00 | 88 | 1015.3 |
| 20260508090507 | 42 | 183 | 0.0 | 1.7 | 0.00 | 0.00 | 0.00 | 88 | 1015.4 |
| 20260508090043 | 42 | 183 | 0.0 | 1.7 | 0.00 | 0.00 | 0.00 | 88 | 1015.4 |
| 20260508085502 | 42 | 183 | 0.0 | 0.9 | 0.00 | 0.00 | 0.00 | 88 | 1015.6 |
| 20260508085002 | 42 | 183 | 0.0 | 0.9 | 0.00 | 0.00 | 0.00 | 88 | 1015.6 |
| 20260508084507 | 43 | 183 | 0.0 | 1.7 | 0.00 | 0.00 | 0.00 | 87 | 1015.6 |
| 20260508084008 | 43 | 183 | 0.0 | 1.7 | 0.00 | 0.00 | 0.00 | 88 | 1015.7 |
| 20260508083507 | 43 | 183 | 0.0 | 1.7 | 0.00 | 0.00 | 0.00 | 87 | 1015.7 |
| 20260508083024 | 43 | 182 | 0.0 | 1.7 | 0.00 | 0.00 | 0.00 | 87 | 1015.8 |
| 20260508082509 | 44 | 182 | 0.0 | 1.7 | 0.00 | 0.00 | 0.00 | 87 | 1015.8 |
| 20260508082010 | 44 | 168 | 0.0 | 1.7 | 0.00 | 0.00 | 0.00 | 86 | 1015.8 |
| 20260508081504 | 44 | 84 | 0.0 | 1.7 | 0.00 | 0.00 | 0.00 | 86 | 1015.9 |
| 20260508081003 | 44 | 82 | 0.0 | 1.7 | 0.00 | 0.00 | 0.00 | 85 | 1016.0 |
| 20260508080507 | 44 | 57 | 0.0 | 0.9 | 0.00 | 0.00 | 0.00 | 86 | 1016.1 |
| 20260508080014 | 45 | 142 | 0.0 | 1.7 | 0.00 | 0.00 | 0.00 | 86 | 1016.1 |
| 20260508075507 | 45 | 214 | 0.0 | 1.7 | 0.00 | 0.00 | 0.00 | 86 | 1016.2 |
| 20260508075008 | 45 | 229 | 0.9 | 1.7 | 0.00 | 0.00 | 0.00 | 86 | 1016.3 |
| 20260508074526 | 45 | 236 | 0.0 | 1.7 | 0.00 | 0.00 | 0.00 | 86 | 1016.4 |
| 20260508074009 | 45 | 238 | 0.0 | 1.7 | 0.00 | 0.00 | 0.00 | 85 | 1016.6 |
| 20260508073503 | 45 | 220 | 0.0 | 1.7 | 0.00 | 0.00 | 0.00 | 85 | 1016.6 |
| 20260508073007 | 45 | 72 | 0.0 | 1.7 | 0.00 | 0.00 | 0.00 | 85 | 1016.5 |
| 20260508072503 | 45 | 92 | 0.0 | 1.7 | 0.00 | 0.00 | 0.00 | 85 | 1016.4 |
| 20260508072004 | 46 | 92 | 0.0 | 1.7 | 0.00 | 0.00 | 0.00 | 84 | 1016.3 |
| 20260508071518 | 46 | 92 | 0.0 | 1.7 | 0.00 | 0.00 | 0.00 | 85 | 1016.3 |
| 20260508071008 | 46 | 39 | 0.0 | 1.7 | 0.00 | 0.00 | 0.00 | 85 | 1016.3 |
| 20260508070513 | 46 | 39 | 0.0 | 1.7 | 0.00 | 0.00 | 0.00 | 84 | 1016.2 |
| 20260508070027 | 47 | 36 | 0.0 | 1.7 | 0.00 | 0.00 | 0.00 | 84 | 1016.1 |
| 20260508065504 | 47 | 47 | 0.0 | 1.7 | 0.00 | 0.00 | 0.00 | 84 | 1016.2 |
| 20260508065008 | 47 | 47 | 0.0 | 1.7 | 0.00 | 0.00 | 0.00 | 84 | 1016.1 |
| 20260508064512 | 47 | 51 | 0.0 | 1.7 | 0.00 | 0.00 | 0.00 | 83 | 1015.9 |
| 20260508064006 | 48 | 51 | 0.0 | 1.7 | 0.00 | 0.00 | 0.00 | 82 | 1015.9 |
| 20260508063507 | 48 | 52 | 0.0 | 1.7 | 0.00 | 0.00 | 0.00 | 81 | 1015.7 |
| 20260508063020 | 48 | 52 | 0.0 | 1.7 | 0.00 | 0.00 | 0.00 | 81 | 1015.8 |
| 20260508062507 | 49 | 56 | 0.0 | 1.7 | 0.00 | 0.00 | 0.00 | 80 | 1015.7 |
| 20260508062011 | 49 | 177 | 0.0 | 1.7 | 0.00 | 0.00 | 0.00 | 79 | 1015.6 |
| 20260508061506 | 49 | 214 | 0.0 | 2.6 | 0.00 | 0.00 | 0.00 | 78 | 1015.6 |
| 20260508061006 | 49 | 225 | 0.9 | 2.6 | 0.00 | 0.00 | 0.00 | 78 | 1015.6 |
| 20260508060506 | 50 | 167 | 0.0 | 2.6 | 0.00 | 0.00 | 0.00 | 77 | 1015.6 |
| 20260508060017 | 51 | 129 | 0.0 | 1.7 | 0.00 | 0.00 | 0.00 | 77 | 1015.5 |
| 20260508055506 | 51 | 129 | 0.0 | 1.7 | 0.00 | 0.00 | 0.00 | 74 | 1015.4 |
| 20260508055012 | 52 | 129 | 0.0 | 1.7 | 0.00 | 0.00 | 0.00 | 74 | 1015.6 |
| 20260508054534 | 52 | 128 | 0.0 | 1.7 | 0.00 | 0.00 | 0.00 | 73 | 1015.3 |
| 20260508054013 | 53 | 128 | 0.9 | 2.6 | 0.00 | 0.00 | 0.00 | 69 | 1015.7 |
| 20260508053503 | 53 | 244 | 0.0 | 2.6 | 0.00 | 0.00 | 0.00 | 69 | 1016.5 |
| 20260508053013 | 54 | 259 | 0.0 | 1.7 | 0.00 | 0.00 | 0.00 | 67 | 1016.5 |
| 20260508052507 | 54 | 259 | 0.0 | 2.6 | 0.00 | 0.00 | 0.00 | 61 | 1016.6 |
| 20260508052007 | 54 | 256 | 0.0 | 2.6 | 0.00 | 0.00 | 0.00 | 61 | 1016.6 |
| 20260508051523 | 53 | 251 | 0.0 | 1.7 | 0.00 | 0.00 | 0.00 | 63 | 1016.3 |
| 20260508051013 | 53 | 242 | 0.0 | 1.7 | 0.00 | 0.00 | 0.00 | 63 | 1015.8 |
| 20260508050509 | 53 | 240 | 0.0 | 1.7 | 0.00 | 0.00 | 0.00 | 63 | 1015.4 |
| 20260508050031 | 54 | 240 | 0.0 | 1.7 | 0.00 | 0.00 | 0.00 | 63 | 1015.2 |
| 20260508045510 | 54 | 241 | 0.0 | 1.7 | 0.00 | 0.00 | 0.00 | 61 | 1015.4 |
| 20260508045005 | 54 | 241 | 0.0 | 1.7 | 0.00 | 0.00 | 0.00 | 61 | 1015.2 |
| 20260508044511 | 54 | 241 | 0.0 | 1.7 | 0.00 | 0.00 | 0.00 | 60 | 1015.1 |
| 20260508044006 | 55 | 236 | 0.0 | 1.7 | 0.00 | 0.00 | 0.00 | 60 | 1015.2 |
| 20260508043505 | 55 | 199 | 0.0 | 0.9 | 0.00 | 0.00 | 0.00 | 59 | 1015.1 |
| 20260508043024 | 55 | 175 | 0.0 | 1.7 | 0.00 | 0.00 | 0.00 | 58 | 1015.0 |
| 20260508042508 | 55 | 175 | 0.0 | 2.6 | 0.00 | 0.00 | 0.00 | 58 | 1015.0 |
| 20260508042008 | 56 | 136 | 0.0 | 2.6 | 0.00 | 0.00 | 0.00 | 57 | 1014.9 |
| 20260508041526 | 56 | 95 | 0.9 | 2.6 | 0.00 | 0.00 | 0.00 | 56 | 1015.1 |
| 20260508041005 | 57 | 109 | 0.9 | 1.7 | 0.00 | 0.00 | 0.00 | 56 | 1015.2 |
| 20260508040507 | 57 | 107 | 0.9 | 3.5 | 0.00 | 0.00 | 0.00 | 55 | 1015.2 |
| 20260508040017 | 58 | 85 | 0.0 | 6.1 | 0.00 | 0.00 | 0.00 | 54 | 1015.4 |
| 20260508035509 | 58 | 19 | 1.7 | 7.0 | 0.00 | 0.00 | 0.00 | 51 | 1015.5 |
| 20260508035007 | 58 | 360 | 2.6 | 7.0 | 0.00 | 0.00 | 0.00 | 48 | 1015.4 |
| 20260508034538 | 58 | 23 | 0.9 | 2.6 | 0.00 | 0.00 | 0.00 | 47 | 1015.2 |
| 20260508034007 | 58 | 346 | 0.9 | 2.6 | 0.00 | 0.00 | 0.00 | 47 | 1015.1 |
| 20260508033509 | 58 | 34 | 0.9 | 1.7 | 0.00 | 0.00 | 0.00 | 48 | 1014.7 |
| 20260508033010 | 58 | 24 | 0.0 | 2.6 | 0.00 | 0.00 | 0.00 | 46 | 1014.6 |
| 20260508032505 | 58 | 40 | 0.9 | 2.6 | 0.00 | 0.00 | 0.00 | 46 | 1014.5 |
| 20260508032009 | 58 | 50 | 0.9 | 1.7 | 0.00 | 0.00 | 0.00 | 46 | 1014.4 |
| 20260508031521 | 59 | 5 | 0.0 | 1.7 | 0.00 | 0.00 | 0.00 | 44 | 1014.4 |
| 20260508031010 | 59 | 321 | 0.0 | 1.7 | 0.00 | 0.00 | 0.00 | 43 | 1014.3 |
| 20260508030510 | 59 | 320 | 0.0 | 1.7 | 0.00 | 0.00 | 0.00 | 43 | 1014.1 |
| 20260508030027 | 60 | 331 | 0.0 | 1.7 | 0.00 | 0.00 | 0.00 | 44 | 1013.9 |
| 20260508025511 | 60 | 34 | 0.0 | 2.6 | 0.00 | 0.00 | 0.00 | 42 | 1013.9 |
| 20260508025007 | 60 | 167 | 0.0 | 2.6 | 0.00 | 0.00 | 0.00 | 41 | 1013.9 |
| 20260508024532 | 60 | 168 | 0.0 | 4.3 | 0.00 | 0.00 | 0.00 | 41 | 1013.9 |
| 20260508024008 | 61 | 268 | 1.7 | 4.3 | 0.00 | 0.00 | 0.00 | 39 | 1013.8 |
| 20260508023508 | 61 | 163 | 0.0 | 5.2 | 0.00 | 0.00 | 0.00 | 39 | 1013.8 |
| 20260508023023 | 61 | 198 | 0.9 | 5.2 | 0.00 | 0.00 | 0.00 | 38 | 1013.8 |
| 20260508022516 | 61 | 186 | 0.9 | 12.2 | 0.00 | 0.00 | 0.00 | 38 | 1013.7 |
| 20260508022010 | 61 | 221 | 1.7 | 12.2 | 0.00 | 0.00 | 0.00 | 38 | 1013.6 |
| 20260508021530 | 61 | 217 | 3.5 | 9.6 | 0.00 | 0.00 | 0.00 | 38 | 1013.6 |
| 20260508021007 | 61 | 226 | 1.7 | 7.8 | 0.00 | 0.00 | 0.00 | 39 | 1013.6 |
| 20260508020506 | 61 | 199 | 0.9 | 4.3 | 0.00 | 0.00 | 0.00 | 41 | 1013.6 |
| 20260508020019 | 61 | 196 | 0.9 | 4.3 | 0.00 | 0.00 | 0.00 | 42 | 1013.7 |
| 20260508015506 | 62 | 232 | 0.9 | 3.5 | 0.00 | 0.00 | 0.00 | 42 | 1013.5 |
| 20260508015012 | 62 | 191 | 0.9 | 3.5 | 0.00 | 0.00 | 0.00 | 41 | 1013.3 |
| 20260508014526 | 62 | 110 | 0.0 | 2.6 | 0.00 | 0.00 | 0.00 | 40 | 1013.0 |
| 20260508014010 | 63 | 159 | 0.0 | 3.5 | 0.00 | 0.00 | 0.00 | 39 | 1013.0 |
| 20260508013510 | 63 | 109 | 0.9 | 3.5 | 0.00 | 0.00 | 0.00 | 38 | 1012.8 |
| 20260508013015 | 64 | 121 | 0.0 | 2.6 | 0.00 | 0.00 | 0.00 | 37 | 1012.9 |
| 20260508012507 | 64 | 99 | 0.0 | 1.7 | 0.00 | 0.00 | 0.00 | 34 | 1012.9 |
| 20260508012007 | 64 | 90 | 0.0 | 1.7 | 0.00 | 0.00 | 0.00 | 34 | 1013.0 |
| 20260508011529 | 64 | 92 | 0.0 | 5.2 | 0.00 | 0.00 | 0.00 | 35 | 1013.0 |
| 20260508011007 | 64 | 127 | 2.6 | 5.2 | 0.00 | 0.00 | 0.00 | 35 | 1013.0 |
| 20260508010511 | 64 | 83 | 1.7 | 5.2 | 0.00 | 0.00 | 0.00 | 35 | 1012.9 |
| 20260508010030 | 65 | 65 | 2.6 | 4.3 | 0.00 | 0.00 | 0.00 | 35 | 1012.7 |
| 20260508005510 | 65 | 166 | 0.0 | 3.5 | 0.00 | 0.00 | 0.00 | 33 | 1012.4 |
| 20260508005007 | 65 | 188 | 0.0 | 3.5 | 0.00 | 0.00 | 0.00 | 31 | 1012.2 |
| 20260508004535 | 66 | 210 | 0.9 | 3.5 | 0.00 | 0.00 | 0.00 | 32 | 1012.2 |
| 20260508004010 | 66 | 153 | 0.0 | 3.5 | 0.00 | 0.00 | 0.00 | 31 | 1012.2 |
| 20260508003512 | 66 | 224 | 0.0 | 3.5 | 0.00 | 0.00 | 0.00 | 31 | 1012.1 |
| 20260508003026 | 67 | 220 | 0.9 | 3.5 | 0.00 | 0.00 | 0.00 | 30 | 1012.0 |
| 20260508002508 | 68 | 209 | 0.9 | 4.3 | 0.00 | 0.00 | 0.00 | 29 | 1012.1 |
| 20260508002013 | 68 | 173 | 1.7 | 4.3 | 0.00 | 0.00 | 0.00 | 27 | 1012.0 |
| 20260508001537 | 68 | 177 | 0.0 | 1.7 | 0.00 | 0.00 | 0.00 | 25 | 1011.9 |
| 20260508001007 | 69 | 199 | 0.0 | 4.3 | 0.00 | 0.00 | 0.00 | 26 | 1011.9 |
| 20260508000508 | 69 | 189 | 0.9 | 4.3 | 0.00 | 0.00 | 0.00 | 25 | 1012.0 |
| 20260508000021 | 70 | 100 | 0.9 | 2.6 | 0.00 | 0.00 | 0.00 | 25 | 1012.1 |
| 20260507235509 | 70 | 194 | 0.9 | 2.6 | 0.00 | 0.00 | 0.00 | 25 | 1012.1 |
| 20260507235011 | 71 | 228 | 0.0 | 1.7 | 0.00 | 0.00 | 0.00 | 24 | 1012.0 |
| 20260507234531 | 71 | 314 | 0.0 | 1.7 | 0.00 | 0.00 | 0.00 | 23 | 1011.9 |
| 20260507234007 | 71 | 352 | 0.0 | 1.7 | 0.00 | 0.00 | 0.00 | 23 | 1011.9 |
| 20260507233517 | 71 | 336 | 0.9 | 1.7 | 0.00 | 0.00 | 0.00 | 24 | 1012.0 |
| 20260507233017 | 71 | 210 | 0.9 | 3.5 | 0.00 | 0.00 | 0.00 | 23 | 1012.0 |
| 20260507232508 | 71 | 227 | 0.9 | 4.3 | 0.00 | 0.00 | 0.00 | 23 | 1011.9 |
| 20260507232012 | 71 | 236 | 0.9 | 5.2 | 0.00 | 0.00 | 0.00 | 23 | 1012.0 |
| 20260507231525 | 72 | 284 | 1.7 | 5.2 | 0.00 | 0.00 | 0.00 | 23 | 1012.1 |
| 20260507231010 | 72 | 213 | 0.9 | 2.6 | 0.00 | 0.00 | 0.00 | 22 | 1012.1 |
| 20260507230510 | 72 | 107 | 0.9 | 3.5 | 0.00 | 0.00 | 0.00 | 22 | 1012.1 |
| 20260507230028 | 72 | 173 | 0.9 | 3.5 | 0.00 | 0.00 | 0.00 | 22 | 1012.0 |
| 20260507225509 | 71 | 265 | 1.7 | 4.3 | 0.00 | 0.00 | 0.00 | 22 | 1012.1 |
| 20260507225008 | 71 | 242 | 0.9 | 5.2 | 0.00 | 0.00 | 0.00 | 24 | 1012.1 |
| 20260507224522 | 71 | 236 | 1.7 | 5.2 | 0.00 | 0.00 | 0.00 | 22 | 1012.1 |
| 20260507224007 | 71 | 250 | 0.9 | 4.3 | 0.00 | 0.00 | 0.00 | 23 | 1012.1 |
| 20260507223508 | 71 | 257 | 0.9 | 6.1 | 0.00 | 0.00 | 0.00 | 23 | 1012.1 |
| 20260507223027 | 71 | 24 | 1.7 | 8.7 | 0.00 | 0.00 | 0.00 | 24 | 1012.2 |
| 20260507222512 | 71 | 251 | 2.6 | 8.7 | 0.00 | 0.01 | 0.00 | 23 | 1012.2 |
| 20260507222009 | 71 | 180 | 0.9 | 4.3 | 0.00 | 0.01 | 0.00 | 23 | 1012.2 |
| 20260507221539 | 72 | 333 | 0.9 | 5.2 | 0.00 | 0.01 | 0.00 | 22 | 1012.2 |
| 20260507221008 | 72 | 342 | 0.9 | 5.2 | 0.00 | 0.02 | 0.00 | 23 | 1012.4 |
| 20260507220512 | 71 | 185 | 0.9 | 4.3 | 0.00 | 0.03 | 0.00 | 24 | 1012.5 |
| 20260507220024 | 71 | 185 | 1.7 | 5.2 | 0.00 | 0.03 | 0.00 | 25 | 1012.7 |
| 20260507215510 | 70 | 169 | 1.7 | 8.7 | 0.00 | 0.04 | 0.00 | 25 | 1012.8 |
| 20260507215010 | 70 | 229 | 2.6 | 7.8 | 0.00 | 0.05 | 0.00 | 26 | 1012.9 |
| 20260507214528 | 69 | 169 | 1.7 | 7.8 | 0.00 | 0.06 | 0.00 | 26 | 1013.1 |
| 20260507214009 | 69 | 157 | 1.7 | 5.2 | 0.00 | 0.07 | 0.00 | 27 | 1013.1 |
| 20260507213511 | 69 | 248 | 1.7 | 8.7 | 0.00 | 0.08 | 0.00 | 26 | 1013.3 |
| 20260507213026 | 69 | 212 | 1.7 | 8.7 | 0.00 | 0.09 | 0.00 | 26 | 1013.3 |
| 20260507212506 | 69 | 236 | 1.7 | 7.0 | 0.00 | 0.11 | 0.00 | 26 | 1013.3 |
| 20260507212007 | 68 | 161 | 2.6 | 7.0 | 0.00 | 0.13 | 0.00 | 27 | 1013.4 |
| 20260507211504 | 67 | 20 | 1.7 | 3.5 | 0.00 | 0.15 | 0.00 | 27 | 1013.5 |
| 20260507211005 | 67 | 117 | 0.9 | 9.6 | 0.00 | 0.16 | 0.00 | 29 | 1013.5 |
| 20260507210503 | 67 | 304 | 0.9 | 9.6 | 0.00 | 0.18 | 0.00 | 28 | 1013.7 |
| 20260507210003 | 67 | 329 | 1.7 | 7.0 | 0.00 | 0.20 | 0.00 | 27 | 1013.7 |
| 20260507205505 | 66 | 96 | 1.7 | 7.0 | 0.00 | 0.21 | 0.00 | 26 | 1013.8 |